Time,TemperatureF,DewpointF,PressureIn,WindDirection,WindDirectionDegrees,WindSpeedMPH,WindSpeedGustMPH,Humidity,HourlyPrecipIn,Conditions,Clouds,dailyrainin,SoftwareType,DateUTC
2013-01-17 00:00:00,40.9,26.4,30.29,WNW,284,0.0,1.0,56,0.00,,,0.00,Wunderground v.1.15,2013-01-17 06:00:00,
2013-01-17 00:10:00,40.8,25.9,30.29,West,269,0.0,0.0,55,0.00,,,0.00,Wunderground v.1.15,2013-01-17 06:10:00,
2013-01-17 00:15:00,40.7,25.8,30.29,West,269,0.0,0.0,55,0.00,,,0.00,Wunderground v.1.15,2013-01-17 06:15:00,
2013-01-17 00:20:00,40.6,25.7,30.29,West,269,0.0,0.0,55,0.00,,,0.00,Wunderground v.1.15,2013-01-17 06:20:00,
2013-01-17 00:29:00,40.8,25.0,30.30,West,278,0.0,1.0,53,0.00,,,0.00,Wunderground v.1.15,2013-01-17 06:29:00,
2013-01-17 00:34:00,40.9,24.6,30.30,West,266,0.0,1.0,52,0.00,,,0.00,Wunderground v.1.15,2013-01-17 06:34:00,
2013-01-17 00:39:00,40.8,24.5,30.29,West,266,0.0,0.0,52,0.00,,,0.00,Wunderground v.1.15,2013-01-17 06:39:00,
2013-01-17 00:44:00,40.9,24.1,30.30,West,267,0.0,0.0,51,0.00,,,0.00,Wunderground v.1.15,2013-01-17 06:44:00,
2013-01-17 00:49:00,40.7,24.4,30.30,West,267,0.0,0.0,52,0.00,,,0.00,Wunderground v.1.15,2013-01-17 06:49:00,
2013-01-17 00:54:00,40.6,24.3,30.30,West,266,0.0,0.0,52,0.00,,,0.00,Wunderground v.1.15,2013-01-17 06:54:00,
2013-01-17 01:00:00,40.5,23.8,30.30,West,267,0.0,0.0,51,0.00,,,0.00,Wunderground v.1.15,2013-01-17 07:00:00,
2013-01-17 01:10:00,40.8,24.1,30.30,West,267,0.0,1.0,51,0.00,,,0.00,Wunderground v.1.15,2013-01-17 07:10:00,
2013-01-17 01:15:00,40.7,24.0,30.30,West,279,0.0,1.0,51,0.00,,,0.00,Wunderground v.1.15,2013-01-17 07:15:00,
2013-01-17 01:20:00,40.6,23.9,30.30,SW,236,0.0,0.0,51,0.00,,,0.00,Wunderground v.1.15,2013-01-17 07:20:00,
2013-01-17 01:25:00,40.6,23.9,30.30,WSW,252,0.0,0.0,51,0.00,,,0.00,Wunderground v.1.15,2013-01-17 07:25:00,
2013-01-17 01:35:00,40.2,23.5,30.30,WSW,252,0.0,0.0,51,0.00,,,0.00,Wunderground v.1.15,2013-01-17 07:35:00,
2013-01-17 01:40:00,40.2,23.5,30.30,WSW,252,0.0,0.0,51,0.00,,,0.00,Wunderground v.1.15,2013-01-17 07:40:00,
2013-01-17 01:45:00,40.3,23.6,30.30,WSW,248,0.0,0.0,51,0.00,,,0.00,Wunderground v.1.15,2013-01-17 07:45:00,
2013-01-17 01:50:00,40.3,23.6,30.30,WSW,248,0.0,0.0,51,0.00,,,0.00,Wunderground v.1.15,2013-01-17 07:50:00,
2013-01-17 01:55:00,40.2,23.5,30.30,WSW,248,0.0,0.0,51,0.00,,,0.00,Wunderground v.1.15,2013-01-17 07:55:00,
2013-01-17 02:00:00,40.2,23.5,30.30,WSW,248,0.0,0.0,51,0.00,,,0.00,Wunderground v.1.15,2013-01-17 08:00:00,
2013-01-17 02:10:00,40.3,23.1,30.30,West,263,0.0,0.0,50,0.00,,,0.00,Wunderground v.1.15,2013-01-17 08:10:00,
2013-01-17 02:15:00,40.4,23.2,30.31,West,276,0.0,1.0,50,0.00,,,0.00,Wunderground v.1.15,2013-01-17 08:15:00,
2013-01-17 02:20:00,40.4,23.2,30.31,WSW,253,0.0,0.0,50,0.00,,,0.00,Wunderground v.1.15,2013-01-17 08:20:00,
2013-01-17 02:25:00,40.3,23.1,30.31,WSW,253,0.0,0.0,50,0.00,,,0.00,Wunderground v.1.15,2013-01-17 08:25:00,
2013-01-17 02:30:00,40.3,23.1,30.31,WSW,253,0.0,1.0,50,0.00,,,0.00,Wunderground v.1.15,2013-01-17 08:30:00,
2013-01-17 02:39:00,40.1,22.9,30.31,West,269,0.0,0.0,50,0.00,,,0.00,Wunderground v.1.15,2013-01-17 08:39:00,
2013-01-17 02:45:00,40.2,23.0,30.31,WSW,246,0.0,0.0,50,0.00,,,0.00,Wunderground v.1.15,2013-01-17 08:45:00,
2013-01-17 02:50:00,40.3,23.1,30.30,West,269,0.0,0.0,50,0.00,,,0.00,Wunderground v.1.15,2013-01-17 08:50:00,
2013-01-17 02:55:00,40.1,22.9,30.31,West,270,0.0,0.0,50,0.00,,,0.00,Wunderground v.1.15,2013-01-17 08:55:00,
2013-01-17 03:00:00,39.9,23.2,30.30,West,270,0.0,0.0,51,0.00,,,0.00,Wunderground v.1.15,2013-01-17 09:00:00,
2013-01-17 03:10:00,39.6,23.4,30.31,West,270,0.0,0.0,52,0.00,,,0.00,Wunderground v.1.15,2013-01-17 09:10:00,
2013-01-17 03:15:00,39.5,23.8,30.31,West,274,0.0,0.0,53,0.00,,,0.00,Wunderground v.1.15,2013-01-17 09:15:00,
2013-01-17 03:20:00,39.5,23.8,30.31,West,264,0.0,1.0,53,0.00,,,0.00,Wunderground v.1.15,2013-01-17 09:20:00,
2013-01-17 03:25:00,39.6,23.9,30.31,West,266,0.0,1.0,53,0.00,,,0.00,Wunderground v.1.15,2013-01-17 09:25:00,
2013-01-17 03:30:00,39.6,23.9,30.31,WNW,301,0.0,1.0,53,0.00,,,0.00,Wunderground v.1.15,2013-01-17 09:30:00,
2013-01-17 03:35:00,39.8,23.6,30.31,WNW,288,0.0,1.0,52,0.00,,,0.00,Wunderground v.1.15,2013-01-17 09:35:00,
2013-01-17 03:40:00,40.1,23.4,30.31,West,273,0.0,1.0,51,0.00,,,0.00,Wunderground v.1.15,2013-01-17 09:40:00,
2013-01-17 03:45:00,40.3,23.1,30.31,WNW,291,0.0,1.0,50,0.00,,,0.00,Wunderground v.1.15,2013-01-17 09:45:00,
2013-01-17 03:50:00,40.5,23.3,30.31,WNW,293,0.0,1.0,50,0.00,,,0.00,Wunderground v.1.15,2013-01-17 09:50:00,
2013-01-17 03:55:00,40.7,23.0,30.31,West,262,1.0,1.0,49,0.00,,,0.00,Wunderground v.1.15,2013-01-17 09:55:00,
2013-01-17 04:00:00,40.9,23.2,30.31,WNW,287,1.0,1.0,49,0.00,,,0.00,Wunderground v.1.15,2013-01-17 10:00:00,
2013-01-17 04:10:00,40.9,23.2,30.31,WSW,250,0.0,0.0,49,0.00,,,0.00,Wunderground v.1.15,2013-01-17 10:10:00,
2013-01-17 04:20:00,40.6,23.4,30.31,West,279,0.0,0.0,50,0.00,,,0.00,Wunderground v.1.15,2013-01-17 10:20:00,
2013-01-17 04:25:00,40.6,23.4,30.31,West,271,0.0,0.0,50,0.00,,,0.00,Wunderground v.1.15,2013-01-17 10:25:00,
2013-01-17 04:30:00,40.5,23.3,30.31,West,263,0.0,0.0,50,0.00,,,0.00,Wunderground v.1.15,2013-01-17 10:30:00,
2013-01-17 04:35:00,40.3,23.6,30.31,West,263,0.0,0.0,51,0.00,,,0.00,Wunderground v.1.15,2013-01-17 10:35:00,
2013-01-17 04:40:00,40.1,23.9,30.31,West,263,0.0,0.0,52,0.00,,,0.00,Wunderground v.1.15,2013-01-17 10:40:00,
2013-01-17 04:50:00,39.5,23.8,30.31,West,273,0.0,0.0,53,0.00,,,0.00,Wunderground v.1.15,2013-01-17 10:50:00,
2013-01-17 04:55:00,39.7,24.0,30.31,West,262,0.0,1.0,53,0.00,,,0.00,Wunderground v.1.15,2013-01-17 10:55:00,
2013-01-17 05:00:00,39.9,23.7,30.31,West,269,1.0,1.0,52,0.00,,,0.00,Wunderground v.1.15,2013-01-17 11:00:00,
2013-01-17 05:09:00,40.1,23.9,30.32,West,264,1.0,1.0,52,0.00,,,0.00,Wunderground v.1.15,2013-01-17 11:09:00,
2013-01-17 05:14:00,40.1,23.9,30.31,West,280,1.0,2.0,52,0.00,,,0.00,Wunderground v.1.15,2013-01-17 11:14:00,
2013-01-17 05:20:00,40.2,24.0,30.32,WNW,291,1.0,1.0,52,0.00,,,0.00,Wunderground v.1.15,2013-01-17 11:20:00,
2013-01-17 05:25:00,40.2,24.0,30.32,West,280,1.0,1.0,52,0.00,,,0.00,Wunderground v.1.15,2013-01-17 11:25:00,
2013-01-17 05:30:00,40.2,24.0,30.32,WNW,291,1.0,1.0,52,0.00,,,0.00,Wunderground v.1.15,2013-01-17 11:30:00,
2013-01-17 05:35:00,40.2,24.0,30.32,WSW,257,1.0,1.0,52,0.00,,,0.00,Wunderground v.1.15,2013-01-17 11:35:00,
2013-01-17 05:40:00,40.2,24.0,30.32,West,281,2.0,2.0,52,0.00,,,0.00,Wunderground v.1.15,2013-01-17 11:40:00,
2013-01-17 05:45:00,40.3,24.5,30.32,WNW,295,2.0,2.0,53,0.00,,,0.00,Wunderground v.1.15,2013-01-17 11:45:00,
2013-01-17 05:55:00,40.3,24.5,30.32,WNW,289,2.0,5.0,53,0.00,,,0.00,Wunderground v.1.15,2013-01-17 11:55:00,
2013-01-17 06:00:00,40.3,24.5,30.33,WNW,283,2.0,2.0,53,0.00,,,0.00,Wunderground v.1.15,2013-01-17 12:00:00,
2013-01-17 06:09:00,40.0,25.1,30.33,WNW,285,2.0,2.0,55,0.00,,,0.00,Wunderground v.1.15,2013-01-17 12:09:00,
2013-01-17 06:14:00,39.9,25.0,30.33,West,281,2.0,2.0,55,0.00,,,0.00,Wunderground v.1.15,2013-01-17 12:14:00,
2013-01-17 06:20:00,39.9,25.0,30.33,WNW,290,2.0,2.0,55,0.00,,,0.00,Wunderground v.1.15,2013-01-17 12:20:00,
2013-01-17 06:25:00,39.9,25.5,30.33,WNW,294,2.0,2.0,56,0.00,,,0.00,Wunderground v.1.15,2013-01-17 12:25:00,
2013-01-17 06:30:00,40.0,25.6,30.33,NW,310,2.0,2.0,56,0.00,,,0.00,Wunderground v.1.15,2013-01-17 12:30:00,
2013-01-17 06:35:00,40.1,25.6,30.34,WNW,302,2.0,2.0,56,0.00,,,0.00,Wunderground v.1.15,2013-01-17 12:35:00,
2013-01-17 06:40:00,40.4,25.9,30.34,WNW,285,2.0,2.0,56,0.00,,,0.00,Wunderground v.1.15,2013-01-17 12:40:00,
2013-01-17 06:45:00,40.8,26.3,30.34,NNW,329,2.0,3.0,56,0.00,,,0.00,Wunderground v.1.15,2013-01-17 12:45:00,
2013-01-17 06:50:00,41.3,26.3,30.34,NNW,342,1.0,2.0,55,0.00,,,0.00,Wunderground v.1.15,2013-01-17 12:50:00,
2013-01-17 07:00:00,41.9,26.4,30.35,North,359,1.0,2.0,54,0.00,,,0.00,Wunderground v.1.15,2013-01-17 13:00:00,
2013-01-17 07:09:00,42.2,27.2,30.35,NW,320,1.0,1.0,55,0.00,,,0.00,Wunderground v.1.15,2013-01-17 13:09:00,
2013-01-17 07:14:00,42.2,27.6,30.36,North,350,1.0,1.0,56,0.00,,,0.00,Wunderground v.1.15,2013-01-17 13:14:00,
2013-01-17 07:19:00,42.0,27.9,30.35,NW,309,0.0,1.0,57,0.00,,,0.00,Wunderground v.1.15,2013-01-17 13:19:00,
2013-01-17 07:25:00,41.9,28.2,30.36,NW,310,0.0,1.0,58,0.00,,,0.00,Wunderground v.1.15,2013-01-17 13:25:00,
2013-01-17 07:30:00,41.9,28.2,30.36,NW,313,0.0,0.0,58,0.00,,,0.00,Wunderground v.1.15,2013-01-17 13:30:00,
2013-01-17 07:35:00,41.9,28.6,30.36,WNW,298,0.0,1.0,59,0.00,,,0.00,Wunderground v.1.15,2013-01-17 13:35:00,
2013-01-17 07:40:00,42.6,28.8,30.36,NW,311,1.0,1.0,58,0.00,,,0.00,Wunderground v.1.15,2013-01-17 13:40:00,
2013-01-17 07:45:00,42.9,29.1,30.37,WNW,293,1.0,2.0,58,0.00,,,0.00,Wunderground v.1.15,2013-01-17 13:45:00,
2013-01-17 07:50:00,43.1,29.3,30.37,WNW,290,1.0,1.0,58,0.00,,,0.00,Wunderground v.1.15,2013-01-17 13:50:00,
2013-01-17 07:55:00,43.4,29.6,30.37,WNW,297,1.0,1.0,58,0.00,,,0.00,Wunderground v.1.15,2013-01-17 13:55:00,
2013-01-17 08:00:00,43.7,29.9,30.37,West,267,1.0,1.0,58,0.00,,,0.00,Wunderground v.1.15,2013-01-17 14:00:00,
2013-01-17 08:10:00,44.0,30.2,30.38,WNW,287,1.0,2.0,58,0.00,,,0.00,Wunderground v.1.15,2013-01-17 14:10:00,
2013-01-17 08:15:00,44.2,30.3,30.38,NW,309,1.0,2.0,58,0.00,,,0.00,Wunderground v.1.15,2013-01-17 14:15:00,
2013-01-17 08:20:00,44.4,30.5,30.38,NW,316,1.0,1.0,58,0.00,,,0.00,Wunderground v.1.15,2013-01-17 14:20:00,
2013-01-17 08:25:00,44.7,30.8,30.38,WNW,288,1.0,1.0,58,0.00,,,0.00,Wunderground v.1.15,2013-01-17 14:25:00,
2013-01-17 08:30:00,45.1,31.2,30.38,West,280,1.0,1.0,58,0.00,,,0.00,Wunderground v.1.15,2013-01-17 14:30:00,
2013-01-17 08:35:00,45.4,31.5,30.39,West,271,1.0,1.0,58,0.00,,,0.00,Wunderground v.1.15,2013-01-17 14:35:00,
2013-01-17 08:40:00,45.8,31.9,30.39,NW,325,2.0,2.0,58,0.00,,,0.00,Wunderground v.1.15,2013-01-17 14:40:00,
2013-01-17 08:45:00,46.4,32.0,30.39,NW,307,1.0,2.0,57,0.00,,,0.00,Wunderground v.1.15,2013-01-17 14:45:00,
2013-01-17 08:54:00,47.4,32.5,30.39,NNW,337,1.0,3.0,56,0.00,,,0.00,Wunderground v.1.15,2013-01-17 14:54:00,
2013-01-17 09:00:00,48.1,32.7,30.40,NW,307,1.0,1.0,55,0.00,,,0.00,Wunderground v.1.15,2013-01-17 15:00:00,
2013-01-17 09:10:00,49.6,33.2,30.40,NW,321,2.0,2.0,53,0.00,,,0.00,Wunderground v.1.15,2013-01-17 15:10:00,
2013-01-17 09:15:00,49.9,33.0,30.40,North,11,3.0,6.0,52,0.00,,,0.00,Wunderground v.1.15,2013-01-17 15:15:00,
2013-01-17 09:20:00,50.3,33.3,30.40,NW,305,3.0,4.0,52,0.00,,,0.00,Wunderground v.1.15,2013-01-17 15:20:00,
2013-01-17 09:25:00,51.0,34.0,30.40,NW,316,2.0,4.0,52,0.00,,,0.00,Wunderground v.1.15,2013-01-17 15:25:00,
2013-01-17 09:30:00,51.4,33.9,30.41,NE,34,2.0,3.0,51,0.00,,,0.00,Wunderground v.1.15,2013-01-17 15:30:00,
2013-01-17 09:35:00,52.0,33.9,30.41,NW,313,3.0,6.0,50,0.00,,,0.00,Wunderground v.1.15,2013-01-17 15:35:00,
2013-01-17 09:44:00,52.8,33.6,30.41,NW,320,4.0,5.0,48,0.00,,,0.00,Wunderground v.1.15,2013-01-17 15:44:00,
2013-01-17 09:49:00,53.0,34.3,30.42,NW,316,4.0,5.0,49,0.00,,,0.00,Wunderground v.1.15,2013-01-17 15:49:00,
2013-01-17 09:54:00,53.4,34.7,30.42,NW,308,4.0,5.0,49,0.00,,,0.00,Wunderground v.1.15,2013-01-17 15:54:00,
2013-01-17 10:00:00,53.7,33.9,30.42,WNW,301,4.0,4.0,47,0.00,,,0.00,Wunderground v.1.15,2013-01-17 16:00:00,
2013-01-17 10:10:00,54.5,34.7,30.42,NW,326,4.0,4.0,47,0.00,,,0.00,Wunderground v.1.15,2013-01-17 16:10:00,
2013-01-17 10:20:00,55.2,35.3,30.42,NNW,339,3.0,3.0,47,0.00,,,0.00,Wunderground v.1.15,2013-01-17 16:20:00,
2013-01-17 10:25:00,55.7,35.2,30.42,NNW,331,3.0,3.0,46,0.00,,,0.00,Wunderground v.1.15,2013-01-17 16:25:00,
2013-01-17 10:30:00,56.0,35.5,30.42,NW,316,3.0,4.0,46,0.00,,,0.00,Wunderground v.1.15,2013-01-17 16:30:00,
2013-01-17 10:35:00,56.7,35.6,30.42,NNW,328,3.0,4.0,45,0.00,,,0.00,Wunderground v.1.15,2013-01-17 16:35:00,
2013-01-17 10:40:00,57.0,35.3,30.43,NW,309,2.0,6.0,44,0.00,,,0.00,Wunderground v.1.15,2013-01-17 16:40:00,
2013-01-17 10:50:00,57.5,35.2,30.42,NNE,20,4.0,4.0,43,0.00,,,0.00,Wunderground v.1.15,2013-01-17 16:50:00,
2013-01-17 10:55:00,58.0,35.6,30.42,NNW,341,3.0,5.0,43,0.00,,,0.00,Wunderground v.1.15,2013-01-17 16:55:00,
2013-01-17 11:00:00,58.4,36.0,30.42,WNW,293,3.0,3.0,43,0.00,,,0.00,Wunderground v.1.15,2013-01-17 17:00:00,
2013-01-17 11:10:00,58.8,36.3,30.42,North,359,3.0,4.0,43,0.00,,,0.00,Wunderground v.1.15,2013-01-17 17:10:00,
2013-01-17 11:15:00,59.2,36.1,30.42,North,359,3.0,6.0,42,0.00,,,0.00,Wunderground v.1.15,2013-01-17 17:15:00,
2013-01-17 11:25:00,59.7,36.6,30.41,North,351,3.0,6.0,42,0.00,,,0.00,Wunderground v.1.15,2013-01-17 17:25:00,
2013-01-17 11:30:00,59.8,36.0,30.41,NW,326,3.0,4.0,41,0.00,,,0.00,Wunderground v.1.15,2013-01-17 17:30:00,
2013-01-17 11:35:00,60.0,36.2,30.41,NNE,26,3.0,4.0,41,0.00,,,0.00,Wunderground v.1.15,2013-01-17 17:35:00,
2013-01-17 11:40:00,60.4,37.8,30.41,North,356,3.0,3.0,43,0.00,,,0.00,Wunderground v.1.15,2013-01-17 17:40:00,
2013-01-17 11:45:00,61.0,38.3,30.41,NE,46,2.0,3.0,43,0.00,,,0.00,Wunderground v.1.15,2013-01-17 17:45:00,
2013-01-17 11:55:00,61.4,36.2,30.40,North,4,3.0,5.0,39,0.00,,,0.00,Wunderground v.1.15,2013-01-17 17:55:00,
2013-01-17 12:00:00,61.2,36.0,30.40,NE,37,4.0,5.0,39,0.00,,,0.00,Wunderground v.1.15,2013-01-17 18:00:00,
2013-01-17 12:10:00,61.9,36.7,30.39,NE,40,3.0,3.0,39,0.00,,,0.00,Wunderground v.1.15,2013-01-17 18:10:00,
2013-01-17 12:15:00,62.0,36.7,30.39,North,9,3.0,3.0,39,0.00,,,0.00,Wunderground v.1.15,2013-01-17 18:15:00,
2013-01-17 12:20:00,62.0,38.0,30.39,WNW,291,3.0,3.0,41,0.00,,,0.00,Wunderground v.1.15,2013-01-17 18:20:00,
2013-01-17 12:30:00,62.0,37.4,30.38,NNE,31,2.0,2.0,40,0.00,,,0.00,Wunderground v.1.15,2013-01-17 18:30:00,
2013-01-17 12:35:00,62.1,38.7,30.38,ENE,60,3.0,3.0,42,0.00,,,0.00,Wunderground v.1.15,2013-01-17 18:35:00,
2013-01-17 12:40:00,62.2,39.4,30.38,North,9,3.0,3.0,43,0.00,,,0.00,Wunderground v.1.15,2013-01-17 18:40:00,
2013-01-17 12:45:00,62.2,40.0,30.38,NNE,22,3.0,3.0,44,0.00,,,0.00,Wunderground v.1.15,2013-01-17 18:45:00,
2013-01-17 12:50:00,62.6,40.9,30.37,NE,49,3.0,5.0,45,0.00,,,0.00,Wunderground v.1.15,2013-01-17 18:50:00,
2013-01-17 13:00:00,63.0,39.5,30.37,NE,54,4.0,9.0,42,0.00,,,0.00,Wunderground v.1.15,2013-01-17 19:00:00,
2013-01-17 13:10:00,63.4,40.5,30.36,NNE,19,3.0,4.0,43,0.00,,,0.00,Wunderground v.1.15,2013-01-17 19:10:00,
2013-01-17 13:15:00,62.9,40.6,30.36,NE,53,3.0,4.0,44,0.00,,,0.00,Wunderground v.1.15,2013-01-17 19:15:00,
2013-01-17 13:20:00,63.0,40.1,30.36,ENE,58,4.0,4.0,43,0.00,,,0.00,Wunderground v.1.15,2013-01-17 19:20:00,
2013-01-17 13:25:00,63.3,40.4,30.35,NE,48,4.0,4.0,43,0.00,,,0.00,Wunderground v.1.15,2013-01-17 19:25:00,
2013-01-17 13:35:00,63.7,40.2,30.35,North,352,3.0,3.0,42,0.00,,,0.00,Wunderground v.1.15,2013-01-17 19:35:00,
2013-01-17 13:40:00,63.9,40.3,30.35,North,8,3.0,3.0,42,0.00,,,0.00,Wunderground v.1.15,2013-01-17 19:40:00,
2013-01-17 13:45:00,64.2,40.6,30.35,NW,313,3.0,3.0,42,0.00,,,0.00,Wunderground v.1.15,2013-01-17 19:45:00,
2013-01-17 13:50:00,65.1,40.2,30.34,NE,35,2.0,2.0,40,0.00,,,0.00,Wunderground v.1.15,2013-01-17 19:50:00,
2013-01-17 13:55:00,65.0,39.4,30.34,NE,47,2.0,2.0,39,0.00,,,0.00,Wunderground v.1.15,2013-01-17 19:55:00,
2013-01-17 14:00:00,64.6,39.7,30.34,NE,48,3.0,3.0,40,0.00,,,0.00,Wunderground v.1.15,2013-01-17 20:00:00,
2013-01-17 14:10:00,64.5,41.5,30.34,NE,43,3.0,3.0,43,0.00,,,0.00,Wunderground v.1.15,2013-01-17 20:10:00,
2013-01-17 14:15:00,64.5,40.3,30.34,ENE,65,3.0,3.0,41,0.00,,,0.00,Wunderground v.1.15,2013-01-17 20:15:00,
2013-01-17 14:20:00,64.4,40.2,30.34,NE,44,3.0,5.0,41,0.00,,,0.00,Wunderground v.1.15,2013-01-17 20:20:00,
2013-01-17 14:25:00,64.7,41.1,30.34,NNE,22,3.0,5.0,42,0.00,,,0.00,Wunderground v.1.15,2013-01-17 20:25:00,
2013-01-17 14:30:00,64.8,39.9,30.34,NE,46,2.0,2.0,40,0.00,,,0.00,Wunderground v.1.15,2013-01-17 20:30:00,
2013-01-17 14:40:00,65.6,40.0,30.34,NNE,23,2.0,3.0,39,0.00,,,0.00,Wunderground v.1.15,2013-01-17 20:40:00,
2013-01-17 14:45:00,65.2,40.3,30.34,NE,51,2.0,4.0,40,0.00,,,0.00,Wunderground v.1.15,2013-01-17 20:45:00,
2013-01-17 14:50:00,64.7,39.8,30.34,NE,41,3.0,3.0,40,0.00,,,0.00,Wunderground v.1.15,2013-01-17 20:50:00,
2013-01-17 14:55:00,64.7,39.2,30.34,NE,51,4.0,5.0,39,0.00,,,0.00,Wunderground v.1.15,2013-01-17 20:55:00,
2013-01-17 15:00:00,64.5,39.6,30.34,ENE,60,4.0,6.0,40,0.00,,,0.00,Wunderground v.1.15,2013-01-17 21:00:00,
2013-01-17 15:10:00,64.3,40.7,30.34,NE,51,4.0,4.0,42,0.00,,,0.00,Wunderground v.1.15,2013-01-17 21:10:00,
2013-01-17 15:15:00,64.5,40.3,30.34,East,101,4.0,4.0,41,0.00,,,0.00,Wunderground v.1.15,2013-01-17 21:15:00,
2013-01-17 15:20:00,64.8,39.9,30.34,NNE,18,3.0,3.0,40,0.00,,,0.00,Wunderground v.1.15,2013-01-17 21:20:00,
2013-01-17 15:25:00,65.3,41.0,30.34,NE,56,2.0,3.0,41,0.00,,,0.00,Wunderground v.1.15,2013-01-17 21:25:00,
2013-01-17 15:30:00,65.1,40.8,30.34,NE,50,2.0,3.0,41,0.00,,,0.00,Wunderground v.1.15,2013-01-17 21:30:00,
2013-01-17 15:35:00,65.1,41.4,30.34,NNE,23,3.0,3.0,42,0.00,,,0.00,Wunderground v.1.15,2013-01-17 21:35:00,
2013-01-17 15:40:00,65.1,41.4,30.34,NE,39,3.0,5.0,42,0.00,,,0.00,Wunderground v.1.15,2013-01-17 21:40:00,
2013-01-17 15:49:00,64.3,41.9,30.34,NE,34,4.0,4.0,44,0.00,,,0.00,Wunderground v.1.15,2013-01-17 21:49:00,
2013-01-17 15:54:00,64.2,41.2,30.35,ENE,64,3.0,4.0,43,0.00,,,0.00,Wunderground v.1.15,2013-01-17 21:54:00,
2013-01-17 16:00:00,63.9,42.7,30.35,NNW,342,4.0,4.0,46,0.00,,,0.00,Wunderground v.1.15,2013-01-17 22:00:00,
2013-01-17 16:10:00,64.2,42.4,30.35,NE,37,3.0,3.0,45,0.00,,,0.00,Wunderground v.1.15,2013-01-17 22:10:00,
2013-01-17 16:20:00,61.7,44.4,30.35,ESE,105,5.0,5.0,53,0.00,,,0.00,Wunderground v.1.15,2013-01-17 22:20:00,
2013-01-17 16:25:00,61.1,44.8,30.36,ENE,75,5.0,6.0,55,0.00,,,0.00,Wunderground v.1.15,2013-01-17 22:25:00,
2013-01-17 16:30:00,60.2,44.9,30.36,East,91,5.0,5.0,57,0.00,,,0.00,Wunderground v.1.15,2013-01-17 22:30:00,
2013-01-17 16:35:00,60.1,45.3,30.36,East,91,5.0,8.0,58,0.00,,,0.00,Wunderground v.1.15,2013-01-17 22:35:00,
2013-01-17 16:40:00,59.6,44.8,30.36,ENE,74,4.0,4.0,58,0.00,,,0.00,Wunderground v.1.15,2013-01-17 22:40:00,
2013-01-17 16:50:00,59.0,44.7,30.36,ESE,123,4.0,4.0,59,0.00,,,0.00,Wunderground v.1.15,2013-01-17 22:50:00,
2013-01-17 16:55:00,58.8,44.5,30.36,SE,132,4.0,4.0,59,0.00,,,0.00,Wunderground v.1.15,2013-01-17 22:55:00,
2013-01-17 17:00:00,58.6,43.9,30.36,East,86,4.0,4.0,58,0.00,,,0.00,Wunderground v.1.15,2013-01-17 23:00:00,
2013-01-17 17:10:00,58.4,43.2,30.37,SE,129,3.0,6.0,57,0.00,,,0.00,Wunderground v.1.15,2013-01-17 23:10:00,
2013-01-17 17:15:00,58.3,42.7,30.37,ESE,122,3.0,6.0,56,0.00,,,0.00,Wunderground v.1.15,2013-01-17 23:15:00,
2013-01-17 17:25:00,58.1,42.9,30.37,ESE,119,3.0,5.0,57,0.00,,,0.00,Wunderground v.1.15,2013-01-17 23:25:00,
2013-01-17 17:30:00,57.9,43.2,30.38,ESE,102,3.0,3.0,58,0.00,,,0.00,Wunderground v.1.15,2013-01-17 23:30:00,
2013-01-17 17:35:00,57.6,43.8,30.38,SE,141,3.0,3.0,60,0.00,,,0.00,Wunderground v.1.15,2013-01-17 23:35:00,
2013-01-17 17:40:00,57.2,43.9,30.38,ESE,104,3.0,3.0,61,0.00,,,0.00,Wunderground v.1.15,2013-01-17 23:40:00,
2013-01-17 17:45:00,57.0,44.1,30.38,ESE,120,3.0,3.0,62,0.00,,,0.00,Wunderground v.1.15,2013-01-17 23:45:00,
2013-01-17 17:55:00,56.4,45.2,30.38,ESE,106,2.0,2.0,66,0.00,,,0.00,Wunderground v.1.15,2013-01-17 23:55:00,
2013-01-17 18:00:00,56.1,45.3,30.38,ESE,110,1.0,1.0,67,0.00,,,0.00,Wunderground v.1.15,2013-01-18 00:00:00,
2013-01-17 18:10:00,55.7,45.3,30.38,SSE,150,1.0,1.0,68,0.00,,,0.00,Wunderground v.1.15,2013-01-18 00:10:00,
2013-01-17 18:15:00,55.4,45.4,30.39,SSE,148,0.0,1.0,69,0.00,,,0.00,Wunderground v.1.15,2013-01-18 00:15:00,
2013-01-17 18:20:00,55.1,44.7,30.39,South,191,0.0,0.0,68,0.00,,,0.00,Wunderground v.1.15,2013-01-18 00:20:00,
2013-01-17 18:30:00,54.7,43.6,30.40,SE,143,1.0,1.0,66,0.00,,,0.00,Wunderground v.1.15,2013-01-18 00:30:00,
2013-01-17 18:35:00,54.5,43.0,30.40,SSE,148,0.0,1.0,65,0.00,,,0.00,Wunderground v.1.15,2013-01-18 00:35:00,
2013-01-17 18:40:00,54.4,42.5,30.40,SE,136,0.0,0.0,64,0.00,,,0.00,Wunderground v.1.15,2013-01-18 00:40:00,
2013-01-17 18:45:00,54.3,42.0,30.40,SE,132,0.0,1.0,63,0.00,,,0.00,Wunderground v.1.15,2013-01-18 00:45:00,
2013-01-17 18:50:00,54.3,42.0,30.40,SE,139,0.0,0.0,63,0.00,,,0.00,Wunderground v.1.15,2013-01-18 00:50:00,
2013-01-17 19:00:00,53.9,41.6,30.40,SE,131,0.0,1.0,63,0.00,,,0.00,Wunderground v.1.15,2013-01-18 01:00:00,
2013-01-17 19:10:00,53.8,41.9,30.40,SE,133,0.0,0.0,64,0.00,,,0.00,Wunderground v.1.15,2013-01-18 01:10:00,
2013-01-17 19:15:00,53.7,41.8,30.40,SE,132,0.0,0.0,64,0.00,,,0.00,Wunderground v.1.15,2013-01-18 01:15:00,
2013-01-17 19:20:00,53.6,41.7,30.40,SE,132,0.0,0.0,64,0.00,,,0.00,Wunderground v.1.15,2013-01-18 01:20:00,
2013-01-17 19:25:00,53.4,41.5,30.40,SE,132,0.0,0.0,64,0.00,,,0.00,Wunderground v.1.15,2013-01-18 01:25:00,
2013-01-17 19:35:00,52.9,41.4,30.41,SE,132,0.0,0.0,65,0.00,,,0.00,Wunderground v.1.15,2013-01-18 01:35:00,
2013-01-17 19:40:00,52.5,41.5,30.41,SE,132,0.0,0.0,66,0.00,,,0.00,Wunderground v.1.15,2013-01-18 01:40:00,
2013-01-17 19:45:00,52.0,41.4,30.41,SE,136,0.0,0.0,67,0.00,,,0.00,Wunderground v.1.15,2013-01-18 01:45:00,
2013-01-17 19:50:00,51.8,41.2,30.41,SE,136,0.0,0.0,67,0.00,,,0.00,Wunderground v.1.15,2013-01-18 01:50:00,
2013-01-17 19:55:00,51.6,41.4,30.42,SSE,150,0.0,0.0,68,0.00,,,0.00,Wunderground v.1.15,2013-01-18 01:55:00,
2013-01-17 20:00:00,51.6,41.4,30.42,SSE,167,0.0,0.0,68,0.00,,,0.00,Wunderground v.1.15,2013-01-18 02:00:00,
2013-01-17 20:10:00,51.3,41.5,30.42,SSE,166,0.0,0.0,69,0.00,,,0.00,Wunderground v.1.15,2013-01-18 02:10:00,
2013-01-17 20:15:00,51.3,41.8,30.42,SSE,160,0.0,0.0,70,0.00,,,0.00,Wunderground v.1.15,2013-01-18 02:15:00,
2013-01-17 20:20:00,51.1,41.7,30.42,SSE,160,0.0,0.0,70,0.00,,,0.00,Wunderground v.1.15,2013-01-18 02:20:00,
2013-01-17 20:25:00,50.9,41.5,30.42,SSE,161,0.0,0.0,70,0.00,,,0.00,Wunderground v.1.15,2013-01-18 02:25:00,
2013-01-17 20:30:00,50.7,41.3,30.42,SSE,160,0.0,0.0,70,0.00,,,0.00,Wunderground v.1.15,2013-01-18 02:30:00,
2013-01-17 20:40:00,50.1,41.1,30.42,SSE,160,0.0,0.0,71,0.00,,,0.00,Wunderground v.1.15,2013-01-18 02:40:00,
2013-01-17 20:45:00,49.8,40.8,30.42,SSE,160,0.0,0.0,71,0.00,,,0.00,Wunderground v.1.15,2013-01-18 02:45:00,
2013-01-17 20:50:00,49.7,41.0,30.42,SSE,160,0.0,0.0,72,0.00,,,0.00,Wunderground v.1.15,2013-01-18 02:50:00,
2013-01-17 20:55:00,49.5,40.8,30.42,SSE,160,0.0,0.0,72,0.00,,,0.00,Wunderground v.1.15,2013-01-18 02:55:00,
2013-01-17 21:00:00,49.5,41.2,30.43,SSE,160,0.0,0.0,73,0.00,,,0.00,Wunderground v.1.15,2013-01-18 03:00:00,
2013-01-17 21:10:00,49.3,41.0,30.43,SSE,160,0.0,0.0,73,0.00,,,0.00,Wunderground v.1.15,2013-01-18 03:10:00,
2013-01-17 21:15:00,48.8,40.5,30.43,SSE,160,0.0,0.0,73,0.00,,,0.00,Wunderground v.1.15,2013-01-18 03:15:00,
2013-01-17 21:20:00,48.5,40.6,30.43,SSE,160,0.0,0.0,74,0.00,,,0.00,Wunderground v.1.15,2013-01-18 03:20:00,
2013-01-17 21:25:00,48.7,41.1,30.43,SSE,160,0.0,0.0,75,0.00,,,0.00,Wunderground v.1.15,2013-01-18 03:25:00,
2013-01-17 21:30:00,48.6,41.0,30.43,SSE,160,0.0,0.0,75,0.00,,,0.00,Wunderground v.1.15,2013-01-18 03:30:00,
2013-01-17 21:35:00,48.4,40.8,30.43,SSE,160,0.0,0.0,75,0.00,,,0.00,Wunderground v.1.15,2013-01-18 03:35:00,
2013-01-17 21:40:00,48.2,41.0,30.43,SSE,161,0.0,0.0,76,0.00,,,0.00,Wunderground v.1.15,2013-01-18 03:40:00,
2013-01-17 21:45:00,48.2,41.3,30.43,SSE,160,0.0,0.0,77,0.00,,,0.00,Wunderground v.1.15,2013-01-18 03:45:00,
2013-01-17 21:55:00,48.3,41.8,30.43,SSE,160,0.0,0.0,78,0.00,,,0.00,Wunderground v.1.15,2013-01-18 03:55:00,
2013-01-17 22:00:00,48.3,41.8,30.43,SSE,160,0.0,0.0,78,0.00,,,0.00,Wunderground v.1.15,2013-01-18 04:00:00,
2013-01-17 22:10:00,47.9,41.7,30.43,SSE,160,0.0,0.0,79,0.00,,,0.00,Wunderground v.1.15,2013-01-18 04:10:00,
2013-01-17 22:20:00,47.2,41.3,30.43,SSE,161,0.0,0.0,80,0.00,,,0.00,Wunderground v.1.15,2013-01-18 04:20:00,
2013-01-17 22:25:00,47.0,41.5,30.44,SSE,161,0.0,0.0,81,0.00,,,0.00,Wunderground v.1.15,2013-01-18 04:25:00,
2013-01-17 22:30:00,46.9,41.7,30.44,SSE,160,0.0,0.0,82,0.00,,,0.00,Wunderground v.1.15,2013-01-18 04:30:00,
2013-01-17 22:35:00,47.0,41.8,30.44,SSE,160,0.0,0.0,82,0.00,,,0.00,Wunderground v.1.15,2013-01-18 04:35:00,
2013-01-17 22:40:00,46.9,41.7,30.43,SSE,160,0.0,0.0,82,0.00,,,0.00,Wunderground v.1.15,2013-01-18 04:40:00,
2013-01-17 22:50:00,46.2,41.3,30.43,SSE,161,0.0,0.0,83,0.00,,,0.00,Wunderground v.1.15,2013-01-18 04:50:00,
2013-01-17 22:55:00,46.6,42.3,30.43,SSE,160,0.0,0.0,85,0.00,,,0.00,Wunderground v.1.15,2013-01-18 04:55:00,
2013-01-17 23:05:00,46.7,42.1,30.43,SSE,160,0.0,0.0,84,0.00,,,0.00,Wunderground v.1.15,2013-01-18 05:05:00,
2013-01-17 23:10:00,46.5,42.2,30.43,SSE,160,0.0,0.0,85,0.00,,,0.00,Wunderground v.1.15,2013-01-18 05:10:00,
2013-01-17 23:15:00,46.3,41.7,30.43,SSE,160,0.0,0.0,84,0.00,,,0.00,Wunderground v.1.15,2013-01-18 05:15:00,
2013-01-17 23:20:00,45.8,41.5,30.43,SSE,160,0.0,0.0,85,0.00,,,0.00,Wunderground v.1.15,2013-01-18 05:20:00,
2013-01-17 23:30:00,46.0,41.7,30.43,SSE,160,0.0,0.0,85,0.00,,,0.00,Wunderground v.1.15,2013-01-18 05:30:00,
2013-01-17 23:35:00,46.0,41.7,30.43,SSE,160,0.0,0.0,85,0.00,,,0.00,Wunderground v.1.15,2013-01-18 05:35:00,
2013-01-17 23:40:00,45.9,41.6,30.43,SSE,160,0.0,0.0,85,0.00,,,0.00,Wunderground v.1.15,2013-01-18 05:40:00,
2013-01-17 23:45:00,45.9,41.6,30.43,SSE,160,0.0,0.0,85,0.00,,,0.00,Wunderground v.1.15,2013-01-18 05:45:00,
2013-01-17 23:50:00,45.8,41.5,30.43,SSE,161,0.0,0.0,85,0.00,,,0.00,Wunderground v.1.15,2013-01-18 05:50:00,